Location: ??
(35.5052°N, 139.7262°E)
Time: 00:22:55
(UTC+00:00)

Cosmos 1745 Rocket - Visible Passes

Search period start: 15 August 2022 00:00
Search period end: 25 August 2022 00:00
Orbit: 953 x 997 km, 83.0° (Epoch: 14 August)

Date Brightness Start Highest point End Pass type
(mag) Time Alt. Az. Time Alt. Az. Time Alt. Az.
15 Aug 4.3 18:20:49 10° S 18:26:54 69° E 18:33:06 10° NNE visible
16 Aug 6.4 17:04:08 10° ESE 17:07:34 15° E 17:11:01 10° NE visible
16 Aug 4.0 18:46:06 10° SSW 18:52:12 64° W 18:58:24 10° N visible
17 Aug 5.6 17:27:15 10° SE 17:32:29 30° E 17:37:48 10° NNE visible
17 Aug 4.7 19:12:10 10° SW 19:17:41 34° WNW 19:23:18 10° NNW visible
18 Aug 4.5 17:53:06 18° SSE 17:57:34 58° E 18:03:41 10° NNE visible
19 Aug 6.5 16:35:50 10° ESE 16:38:21 13° E 16:40:52 10° ENE visible
19 Aug 3.9 18:18:57 24° SSW 18:22:50 76° W 18:29:07 10° N visible
20 Aug 5.8 17:00:04 17° SE 17:03:13 25° E 17:08:11 10° NNE visible
20 Aug 4.5 18:44:46 22° SW 18:48:15 40° WNW 18:54:08 10° N visible
21 Aug 4.7 17:25:51 32° SE 17:28:16 48° E 17:34:15 10° NNE visible
21 Aug 5.2 19:10:32 15° WSW 19:13:52 22° WNW 19:18:34 10° NNW visible
22 Aug 6.6 16:08:33 10° E 16:09:08 10° E 16:09:44 10° ENE visible
22 Aug 3.9 17:51:35 48° S 17:53:28 90° W 17:59:47 10° N visible
22 Aug 5.8 19:38:10 10° W 19:39:42 11° WNW 19:41:14 10° NW visible
23 Aug 5.9 16:32:35 20° ESE 16:33:58 21° E 16:38:30 10° NE visible
23 Aug 4.2 18:17:16 40° WSW 18:18:51 48° W 18:24:55 10° N visible
24 Aug 4.9 16:58:15 39° ESE 16:58:58 41° E 17:04:46 10° NNE visible
24 Aug 5.0 18:42:57 24° W 18:44:25 26° WNW 18:49:33 10° NNW visible
